Location: ?????
(37.7324°N, 23.9257°E)
Time: 21:17:37
(UTC+00:00)

Cosmos 1782 - Pass Details

Date: 29 November 2020
Orbit: 537 x 550 km, 82.5° (Epoch: 18 January)

Event Time Altitude Azimuth Distance (km) Brightness Sun altitude
Exits shadow 04:15:14 12° 328° (NNW) 1,709 4.9 -12.5°
Maximum altitude 04:18:25 30° 269° (W) 1,004 3.6 -11.9°
Drops below altitude 10° 04:21:56 10° 208° (SSW) 1,821 5.4 -11.2°
Sets 04:24:16 0° 197° (SSW) 2,709 6.4 -10.8°
